Wetterdaten: Woche 09.02.15 - 15.02.15 (KW7)
Datum Zeit Temperatur Luftfeuchte Luftdruck Niederschlag Windrichtung Sonnenschein Solar Wind
09.02.2015 00:00 -6,8 C 81 % 1031,8 hPa 0,0 l/m NW 0,00 h 0 W/m 1,1 km/h (0 Bft)
09.02.2015 01:00 -7,3 C 85 % 1031,7 hPa 0,0 l/m N 0,00 h 0 W/m 0,0 km/h (0 Bft)
09.02.2015 02:00 -7,4 C 87 % 1031,7 hPa 0,0 l/m N 0,00 h 0 W/m 0,0 km/h (0 Bft)
09.02.2015 03:00 -7,4 C 88 % 1031,4 hPa 0,0 l/m N 0,00 h 0 W/m 0,0 km/h (0 Bft)
09.02.2015 04:00 -7,1 C 90 % 1031,3 hPa 0,0 l/m N 0,00 h 0 W/m 0,1 km/h (0 Bft)
09.02.2015 05:00 -6,7 C 89 % 1031,4 hPa 0,0 l/m N 0,00 h 0 W/m 0,8 km/h (0 Bft)
09.02.2015 06:00 -6,2 C 90 % 1031,3 hPa 0,0 l/m W-NW 0,00 h 0 W/m 1,9 km/h (1 Bft)
09.02.2015 07:00 -5,3 C 88 % 1031,6 hPa 0,0 l/m SW 0,00 h 5 W/m 7,8 km/h (2 Bft)
09.02.2015 08:00 -4,2 C 83 % 1031,6 hPa 0,0 l/m S-SW 0,00 h 24 W/m 13,7 km/h (3 Bft)
09.02.2015 09:00 -4,0 C 85 % 1031,4 hPa 0,0 l/m S-SW 0,00 h 48 W/m 11,7 km/h (2 Bft)
09.02.2015 10:00 -2,6 C 79 % 1031,0 hPa 0,0 l/m SW 0,00 h 93 W/m 13,3 km/h (3 Bft)
09.02.2015 11:00 -1,7 C 73 % 1030,9 hPa 0,0 l/m SW 0,00 h 95 W/m 19,7 km/h (3 Bft)
09.02.2015 12:00 -1,0 C 68 % 1030,6 hPa 0,0 l/m SW 0,00 h 92 W/m 17,2 km/h (3 Bft)
09.02.2015 13:00 -0,7 C 66 % 1030,3 hPa 0,0 l/m SW 0,00 h 89 W/m 19,4 km/h (3 Bft)
09.02.2015 14:00 -1,2 C 77 % 1030,2 hPa 0,0 l/m SW 0,00 h 66 W/m 14,5 km/h (3 Bft)
09.02.2015 15:00 -1,0 C 76 % 1030,2 hPa 0,0 l/m SW 0,00 h 57 W/m 10,4 km/h (2 Bft)
09.02.2015 16:00 -0,7 C 75 % 1030,2 hPa 0,0 l/m SW 0,00 h 28 W/m 12,4 km/h (3 Bft)
09.02.2015 17:00 -0,4 C 76 % 1030,3 hPa 0,0 l/m SW 0,00 h 9 W/m 11,3 km/h (2 Bft)
09.02.2015 18:00 -0,8 C 78 % 1030,9 hPa 0,0 l/m SW 0,00 h 0 W/m 8,7 km/h (2 Bft)
09.02.2015 19:00 -1,2 C 81 % 1031,1 hPa 0,0 l/m SW 0,00 h 0 W/m 5,5 km/h (1 Bft)
09.02.2015 20:00 -1,3 C 83 % 1031,5 hPa 0,0 l/m S-SW 0,00 h 0 W/m 6,3 km/h (2 Bft)
09.02.2015 21:00 -1,4 C 84 % 1031,9 hPa 0,0 l/m N 0,00 h 0 W/m 1,9 km/h (1 Bft)
09.02.2015 22:00 -1,3 C 85 % 1031,8 hPa 0,0 l/m S-SW 0,00 h 0 W/m 3,2 km/h (1 Bft)
09.02.2015 23:00 -1,3 C 85 % 1031,3 hPa 0,0 l/m S-SW 0,00 h 0 W/m 5,2 km/h (1 Bft)
10.02.2015 00:00 -1,1 C 84 % 1030,9 hPa 0,0 l/m S-SW 0,00 h 0 W/m 5,4 km/h (1 Bft)
10.02.2015 01:00 -1,1 C 84 % 1030,8 hPa 0,0 l/m SW 0,00 h 0 W/m 5,2 km/h (1 Bft)
10.02.2015 02:00 -1,2 C 84 % 1030,7 hPa 0,0 l/m N 0,00 h 0 W/m 0,7 km/h (0 Bft)
10.02.2015 03:00 -1,2 C 85 % 1030,2 hPa 0,0 l/m S-SW 0,00 h 0 W/m 0,8 km/h (0 Bft)
10.02.2015 04:00 -1,8 C 85 % 1030,0 hPa 0,0 l/m S-SW 0,00 h 0 W/m 4,0 km/h (1 Bft)
10.02.2015 05:00 -3,1 C 86 % 1030,2 hPa 0,0 l/m S-SW 0,00 h 0 W/m 0,8 km/h (0 Bft)
10.02.2015 06:00 -3,3 C 88 % 1030,2 hPa 0,0 l/m N 0,00 h 0 W/m 0,8 km/h (0 Bft)
10.02.2015 07:00 -3,7 C 89 % 1030,3 hPa 0,0 l/m N 0,00 h 9 W/m 0,1 km/h (0 Bft)
10.02.2015 08:00 -3,1 C 91 % 1030,5 hPa 0,0 l/m N 0,00 h 26 W/m 0,0 km/h (0 Bft)
10.02.2015 09:00 -1,9 C 91 % 1030,7 hPa 0,0 l/m S-SW 0,00 h 74 W/m 3,9 km/h (1 Bft)
10.02.2015 10:00 -1,3 C 87 % 1031,0 hPa 0,0 l/m S-SW 0,00 h 140 W/m 1,5 km/h (1 Bft)
10.02.2015 11:00 1,1 C 84 % 1031,0 hPa 0,0 l/m S-SW 0,67 h 382 W/m 3,6 km/h (1 Bft)
10.02.2015 12:00 2,9 C 78 % 1029,9 hPa 0,0 l/m O-NO 1,00 h 475 W/m 9,5 km/h (2 Bft)
10.02.2015 13:00 3,6 C 73 % 1029,1 hPa 0,0 l/m O 1,00 h 462 W/m 9,1 km/h (2 Bft)
10.02.2015 14:00 4,0 C 72 % 1028,6 hPa 0,0 l/m O-NO 1,00 h 391 W/m 10,9 km/h (2 Bft)
10.02.2015 15:00 3,7 C 73 % 1028,4 hPa 0,0 l/m O-NO 1,00 h 280 W/m 10,7 km/h (2 Bft)
10.02.2015 16:00 3,1 C 76 % 1028,3 hPa 0,0 l/m O-NO 0,83 h 116 W/m 11,7 km/h (2 Bft)
10.02.2015 17:00 2,3 C 79 % 1028,4 hPa 0,0 l/m NO 0,00 h 11 W/m 7,2 km/h (2 Bft)
10.02.2015 18:00 1,3 C 81 % 1028,7 hPa 0,0 l/m NO 0,00 h 0 W/m 5,5 km/h (1 Bft)
10.02.2015 19:00 0,4 C 85 % 1028,6 hPa 0,0 l/m NO 0,00 h 0 W/m 7,6 km/h (2 Bft)
10.02.2015 20:00 -0,2 C 87 % 1028,6 hPa 0,0 l/m NO 0,00 h 0 W/m 5,6 km/h (1 Bft)
10.02.2015 21:00 -0,9 C 89 % 1028,4 hPa 0,0 l/m NO 0,00 h 0 W/m 6,4 km/h (2 Bft)
10.02.2015 22:00 -0,6 C 92 % 1028,3 hPa 0,0 l/m NO 0,00 h 0 W/m 10,6 km/h (2 Bft)
10.02.2015 23:00 -0,9 C 92 % 1027,8 hPa 0,0 l/m NO 0,00 h 0 W/m 7,8 km/h (2 Bft)
11.02.2015 00:00 -1,5 C 92 % 1027,4 hPa 0,0 l/m N-NO 0,00 h 0 W/m 6,5 km/h (2 Bft)
11.02.2015 01:00 -2,1 C 93 % 1027,0 hPa 0,0 l/m N-NO 0,00 h 0 W/m 7,4 km/h (2 Bft)
11.02.2015 02:00 -2,3 C 94 % 1026,6 hPa 0,0 l/m N-NO 0,00 h 0 W/m 8,3 km/h (2 Bft)
11.02.2015 03:00 -2,4 C 94 % 1026,3 hPa 0,0 l/m N-NO 0,00 h 0 W/m 9,0 km/h (2 Bft)
11.02.2015 04:00 -2,0 C 95 % 1026,1 hPa 0,0 l/m N-NO 0,00 h 0 W/m 9,6 km/h (2 Bft)
11.02.2015 05:00 -1,7 C 96 % 1026,2 hPa 0,0 l/m NO 0,00 h 0 W/m 13,0 km/h (3 Bft)
11.02.2015 06:00 -1,4 C 96 % 1026,5 hPa 0,0 l/m O-NO 0,00 h 0 W/m 13,2 km/h (3 Bft)
11.02.2015 07:00 -1,3 C 96 % 1026,5 hPa 0,0 l/m O-NO 0,00 h 6 W/m 13,7 km/h (3 Bft)
11.02.2015 08:00 -1,2 C 96 % 1026,7 hPa 0,0 l/m O-NO 0,00 h 26 W/m 7,9 km/h (2 Bft)
11.02.2015 09:00 -1,1 C 96 % 1026,7 hPa 0,0 l/m O 0,00 h 62 W/m 7,4 km/h (2 Bft)
11.02.2015 10:00 -0,7 C 95 % 1026,8 hPa 0,0 l/m O 0,00 h 89 W/m 5,8 km/h (1 Bft)
11.02.2015 11:00 -0,7 C 94 % 1027,0 hPa 0,0 l/m O 0,00 h 113 W/m 4,1 km/h (1 Bft)
11.02.2015 12:00 -0,8 C 94 % 1026,6 hPa 0,0 l/m O 0,00 h 128 W/m 3,3 km/h (1 Bft)
11.02.2015 13:00 -0,5 C 93 % 1026,0 hPa 0,0 l/m SO 0,00 h 167 W/m 4,4 km/h (1 Bft)
11.02.2015 14:00 -0,1 C 90 % 1025,5 hPa 0,0 l/m S 0,17 h 201 W/m 4,7 km/h (1 Bft)
11.02.2015 15:00 0,7 C 87 % 1025,3 hPa 0,0 l/m N 1,00 h 253 W/m 2,4 km/h (1 Bft)
11.02.2015 16:00 0,6 C 86 % 1024,7 hPa 0,0 l/m S 0,83 h 115 W/m 2,5 km/h (1 Bft)
11.02.2015 17:00 -0,3 C 89 % 1024,8 hPa 0,0 l/m N 0,17 h 14 W/m 0,4 km/h (0 Bft)
11.02.2015 18:00 -1,3 C 88 % 1024,8 hPa 0,0 l/m N 0,00 h 0 W/m 0,0 km/h (0 Bft)
11.02.2015 19:00 -2,3 C 90 % 1024,9 hPa 0,0 l/m N 0,00 h 0 W/m 1,9 km/h (1 Bft)
11.02.2015 20:00 -2,8 C 92 % 1025,1 hPa 0,0 l/m S-SW 0,00 h 0 W/m 3,1 km/h (1 Bft)
11.02.2015 21:00 -2,7 C 94 % 1025,0 hPa 0,0 l/m S-SW 0,00 h 0 W/m 5,2 km/h (1 Bft)
11.02.2015 22:00 -2,9 C 95 % 1024,7 hPa 0,0 l/m SW 0,00 h 0 W/m 2,8 km/h (1 Bft)
11.02.2015 23:00 -3,2 C 95 % 1024,7 hPa 0,0 l/m N 0,00 h 0 W/m 2,9 km/h (1 Bft)
12.02.2015 00:00 -3,3 C 96 % 1024,6 hPa 0,0 l/m N 0,00 h 0 W/m 1,9 km/h (1 Bft)
12.02.2015 01:00 -3,6 C 96 % 1024,6 hPa 0,0 l/m S-SW 0,00 h 0 W/m 3,7 km/h (1 Bft)
12.02.2015 02:00 -4,0 C 96 % 1024,5 hPa 0,0 l/m N 0,00 h 0 W/m 1,6 km/h (1 Bft)
12.02.2015 03:00 -4,3 C 96 % 1024,2 hPa 0,0 l/m N 0,00 h 0 W/m 1,2 km/h (1 Bft)
12.02.2015 04:00 -4,6 C 96 % 1023,9 hPa 0,0 l/m S-SW 0,00 h 0 W/m 1,1 km/h (0 Bft)
12.02.2015 05:00 -4,8 C 96 % 1023,8 hPa 0,0 l/m S-SW 0,00 h 0 W/m 0,9 km/h (0 Bft)
12.02.2015 06:00 -5,1 C 96 % 1023,9 hPa 0,0 l/m N 0,00 h 0 W/m 0,3 km/h (0 Bft)
12.02.2015 07:00 -5,4 C 96 % 1024,1 hPa 0,0 l/m N 0,00 h 7 W/m 0,8 km/h (0 Bft)
12.02.2015 08:00 -5,4 C 97 % 1024,7 hPa 0,0 l/m N 0,00 h 26 W/m 0,4 km/h (0 Bft)
12.02.2015 09:00 -5,2 C 97 % 1025,1 hPa 0,0 l/m S-SW 0,00 h 67 W/m 1,5 km/h (1 Bft)
12.02.2015 10:00 -4,9 C 97 % 1025,2 hPa 0,0 l/m N 0,00 h 118 W/m 1,7 km/h (1 Bft)
12.02.2015 11:00 -4,3 C 97 % 1025,2 hPa 0,0 l/m S-SW 0,00 h 158 W/m 3,2 km/h (1 Bft)
12.02.2015 12:00 -3,6 C 97 % 1024,5 hPa 0,0 l/m N 0,42 h 311 W/m 1,3 km/h (1 Bft)
12.02.2015 13:00 -1,4 C 94 % 1023,7 hPa 0,0 l/m S-SW 1,00 h 458 W/m 3,1 km/h (1 Bft)
12.02.2015 14:00 0,4 C 89 % 1023,1 hPa 0,0 l/m S-SW 1,00 h 400 W/m 1,7 km/h (1 Bft)
12.02.2015 15:00 1,4 C 85 % 1023,0 hPa 0,0 l/m S-SW 1,00 h 288 W/m 2,5 km/h (1 Bft)
12.02.2015 16:00 1,1 C 86 % 1022,9 hPa 0,0 l/m N 1,00 h 128 W/m 1,2 km/h (1 Bft)
12.02.2015 17:00 -0,1 C 89 % 1023,2 hPa 0,0 l/m N 0,08 h 14 W/m 0,0 km/h (0 Bft)
12.02.2015 18:00 -1,2 C 89 % 1023,6 hPa 0,0 l/m N 0,00 h 0 W/m 0,0 km/h (0 Bft)
12.02.2015 19:00 -2,5 C 89 % 1024,0 hPa 0,0 l/m S-SW 0,00 h 0 W/m 0,7 km/h (0 Bft)
12.02.2015 20:00 -4,1 C 91 % 1024,1 hPa 0,0 l/m N 0,00 h 0 W/m 0,1 km/h (0 Bft)
12.02.2015 21:00 -4,3 C 94 % 1024,1 hPa 0,0 l/m N 0,00 h 0 W/m 0,5 km/h (0 Bft)
12.02.2015 22:00 -4,6 C 95 % 1023,9 hPa 0,0 l/m N 0,00 h 0 W/m 0,7 km/h (0 Bft)
12.02.2015 23:00 -5,4 C 95 % 1023,6 hPa 0,0 l/m N 0,00 h 0 W/m 0,7 km/h (0 Bft)
13.02.2015 00:00 -6,4 C 95 % 1023,4 hPa 0,0 l/m N 0,00 h 0 W/m 1,3 km/h (1 Bft)
13.02.2015 01:00 -6,9 C 95 % 1023,2 hPa 0,0 l/m N 0,00 h 0 W/m 0,9 km/h (0 Bft)
13.02.2015 02:00 -7,2 C 95 % 1023,3 hPa 0,0 l/m N 0,00 h 0 W/m 0,5 km/h (0 Bft)
13.02.2015 03:00 -7,6 C 95 % 1022,9 hPa 0,0 l/m N 0,00 h 0 W/m 0,8 km/h (0 Bft)
13.02.2015 04:00 -8,3 C 94 % 1022,6 hPa 0,0 l/m N 0,00 h 0 W/m 0,0 km/h (0 Bft)
13.02.2015 05:00 -9,1 C 94 % 1022,7 hPa 0,0 l/m N 0,00 h 0 W/m 0,3 km/h (0 Bft)
13.02.2015 06:00 -9,2 C 94 % 1022,7 hPa 0,0 l/m N 0,00 h 0 W/m 0,4 km/h (0 Bft)
13.02.2015 07:00 -8,8 C 95 % 1022,7 hPa 0,0 l/m N 0,00 h 7 W/m 1,9 km/h (1 Bft)
13.02.2015 08:00 -8,5 C 95 % 1022,7 hPa 0,0 l/m S-SW 0,00 h 35 W/m 2,9 km/h (1 Bft)
13.02.2015 09:00 -7,1 C 96 % 1022,5 hPa 0,0 l/m N 0,25 h 140 W/m 2,4 km/h (1 Bft)
13.02.2015 10:00 -5,9 C 96 % 1022,3 hPa 0,0 l/m S-SW 0,00 h 182 W/m 2,3 km/h (1 Bft)
13.02.2015 11:00 -4,6 C 97 % 1021,8 hPa 0,0 l/m S-SW 0,42 h 298 W/m 1,5 km/h (1 Bft)
13.02.2015 12:00 -2,7 C 97 % 1020,9 hPa 0,0 l/m N 1,00 h 482 W/m 0,8 km/h (0 Bft)
13.02.2015 13:00 0,3 C 90 % 1019,7 hPa 0,0 l/m S-SW 1,00 h 479 W/m 3,3 km/h (1 Bft)
13.02.2015 14:00 2,0 C 84 % 1018,9 hPa 0,0 l/m S-SW 1,00 h 417 W/m 2,7 km/h (1 Bft)
13.02.2015 15:00 2,9 C 81 % 1018,5 hPa 0,0 l/m S-SW 1,00 h 304 W/m 2,3 km/h (1 Bft)
13.02.2015 16:00 2,6 C 83 % 1018,0 hPa 0,0 l/m S-SW 1,00 h 140 W/m 3,2 km/h (1 Bft)
13.02.2015 17:00 1,0 C 86 % 1017,8 hPa 0,0 l/m N 0,08 h 9 W/m 1,6 km/h (1 Bft)
13.02.2015 18:00 -0,2 C 86 % 1018,0 hPa 0,0 l/m S-SW 0,00 h 0 W/m 0,8 km/h (0 Bft)
13.02.2015 19:00 -1,6 C 87 % 1017,9 hPa 0,0 l/m N 0,00 h 0 W/m 0,0 km/h (0 Bft)
13.02.2015 20:00 -2,7 C 89 % 1017,4 hPa 0,0 l/m N 0,00 h 0 W/m 0,0 km/h (0 Bft)
13.02.2015 21:00 -3,8 C 92 % 1017,2 hPa 0,0 l/m N 0,00 h 0 W/m 0,0 km/h (0 Bft)
13.02.2015 22:00 -4,8 C 93 % 1016,9 hPa 0,0 l/m N 0,00 h 0 W/m 0,0 km/h (0 Bft)
13.02.2015 23:00 -5,6 C 93 % 1016,7 hPa 0,0 l/m N 0,00 h 0 W/m 0,0 km/h (0 Bft)
14.02.2015 00:00 -6,0 C 93 % 1016,6 hPa 0,0 l/m N 0,00 h 0 W/m 0,0 km/h (0 Bft)
14.02.2015 01:00 -6,1 C 94 % 1016,0 hPa 0,0 l/m N 0,00 h 0 W/m 0,0 km/h (0 Bft)
14.02.2015 02:00 -5,5 C 95 % 1015,7 hPa 0,0 l/m N 0,00 h 0 W/m 0,5 km/h (0 Bft)
14.02.2015 03:00 -5,2 C 95 % 1015,1 hPa 0,0 l/m N 0,00 h 0 W/m 0,8 km/h (0 Bft)
14.02.2015 04:00 -5,5 C 95 % 1014,4 hPa 0,0 l/m W-SW 0,00 h 0 W/m 3,5 km/h (1 Bft)
14.02.2015 05:00 -5,6 C 95 % 1013,9 hPa 0,0 l/m W 0,00 h 0 W/m 1,1 km/h (0 Bft)
14.02.2015 06:00 -5,6 C 95 % 1013,5 hPa 0,0 l/m NW 0,00 h 0 W/m 5,5 km/h (1 Bft)
14.02.2015 07:00 -5,8 C 95 % 1013,3 hPa 0,0 l/m NW 0,00 h 13 W/m 4,9 km/h (1 Bft)
14.02.2015 08:00 -5,5 C 96 % 1013,2 hPa 0,0 l/m N-NW 0,08 h 67 W/m 5,2 km/h (1 Bft)
14.02.2015 09:00 -4,6 C 96 % 1012,9 hPa 0,0 l/m N-NW 0,17 h 115 W/m 9,1 km/h (2 Bft)
14.02.2015 10:00 -3,4 C 96 % 1012,7 hPa 0,0 l/m N-NW 0,42 h 212 W/m 9,7 km/h (2 Bft)
14.02.2015 11:00 -2,3 C 95 % 1012,5 hPa 0,0 l/m N-NW 0,08 h 231 W/m 5,1 km/h (1 Bft)
14.02.2015 12:00 -0,6 C 91 % 1012,2 hPa 0,0 l/m N-NW 0,33 h 270 W/m 3,9 km/h (1 Bft)
14.02.2015 13:00 1,0 C 85 % 1011,7 hPa 0,0 l/m N-NW 0,75 h 343 W/m 4,3 km/h (1 Bft)
14.02.2015 14:00 2,1 C 80 % 1011,0 hPa 0,0 l/m N-NW 0,75 h 318 W/m 4,4 km/h (1 Bft)
14.02.2015 15:00 2,7 C 76 % 1010,6 hPa 0,0 l/m N-NW 0,33 h 135 W/m 4,3 km/h (1 Bft)
14.02.2015 16:00 1,5 C 82 % 1010,1 hPa 0,0 l/m N-NW 0,00 h 56 W/m 4,7 km/h (1 Bft)
14.02.2015 17:00 0,3 C 87 % 1010,1 hPa 0,0 l/m N-NW 0,17 h 20 W/m 7,1 km/h (2 Bft)
14.02.2015 18:00 -0,6 C 88 % 1010,4 hPa 0,0 l/m N-NW 0,00 h 0 W/m 6,3 km/h (2 Bft)
14.02.2015 19:00 -1,8 C 90 % 1010,6 hPa 0,0 l/m N-NW 0,00 h 0 W/m 6,8 km/h (2 Bft)
14.02.2015 20:00 -2,4 C 93 % 1010,6 hPa 0,0 l/m N 0,00 h 0 W/m 9,9 km/h (2 Bft)
14.02.2015 21:00 -2,3 C 94 % 1010,5 hPa 0,0 l/m N-NO 0,00 h 0 W/m 9,0 km/h (2 Bft)
14.02.2015 22:00 -2,4 C 95 % 1010,5 hPa 0,0 l/m N-NO 0,00 h 0 W/m 8,9 km/h (2 Bft)
14.02.2015 23:00 -2,7 C 96 % 1010,6 hPa 0,0 l/m O-NO 0,00 h 0 W/m 9,0 km/h (2 Bft)
15.02.2015 00:00 -2,9 C 96 % 1010,6 hPa 0,0 l/m O-NO 0,00 h 0 W/m 3,9 km/h (1 Bft)
15.02.2015 01:00 -2,9 C 96 % 1010,8 hPa 0,0 l/m O-NO 0,00 h 0 W/m 3,1 km/h (1 Bft)
15.02.2015 02:00 -3,0 C 97 % 1010,7 hPa 0,0 l/m O-NO 0,00 h 0 W/m 5,6 km/h (1 Bft)
15.02.2015 03:00 -3,2 C 97 % 1010,5 hPa 0,0 l/m O-NO 0,00 h 0 W/m 5,9 km/h (2 Bft)
15.02.2015 04:00 -3,4 C 97 % 1010,3 hPa 0,0 l/m O-NO 0,00 h 0 W/m 5,9 km/h (2 Bft)
15.02.2015 05:00 -3,4 C 97 % 1010,3 hPa 0,0 l/m O-NO 0,00 h 0 W/m 5,2 km/h (1 Bft)
15.02.2015 06:00 -3,3 C 97 % 1010,2 hPa 0,0 l/m O-NO 0,00 h 0 W/m 6,0 km/h (2 Bft)
15.02.2015 07:00 -3,5 C 97 % 1010,4 hPa 0,0 l/m O-NO 0,00 h 12 W/m 7,1 km/h (2 Bft)
15.02.2015 08:00 -3,3 C 97 % 1010,9 hPa 0,0 l/m O-NO 0,00 h 39 W/m 6,4 km/h (2 Bft)
15.02.2015 09:00 -3,0 C 97 % 1011,1 hPa 0,0 l/m O-NO 0,00 h 83 W/m 5,9 km/h (2 Bft)
15.02.2015 10:00 -2,8 C 97 % 1011,4 hPa 0,0 l/m O-NO 0,00 h 91 W/m 7,4 km/h (2 Bft)
15.02.2015 11:00 -2,7 C 97 % 1011,6 hPa 0,0 l/m O-NO 0,00 h 105 W/m 8,0 km/h (2 Bft)
15.02.2015 12:00 -2,3 C 95 % 1011,6 hPa 0,0 l/m NO 0,00 h 94 W/m 7,0 km/h (2 Bft)
15.02.2015 13:00 -2,1 C 94 % 1011,7 hPa 0,0 l/m NO 0,00 h 63 W/m 3,3 km/h (1 Bft)
15.02.2015 14:00 -1,9 C 94 % 1011,9 hPa 0,0 l/m O-NO 0,00 h 68 W/m 5,2 km/h (1 Bft)
15.02.2015 15:00 -1,7 C 94 % 1012,4 hPa 0,0 l/m O-NO 0,00 h 54 W/m 5,7 km/h (1 Bft)
15.02.2015 16:00 -1,8 C 93 % 1012,7 hPa 0,0 l/m O-NO 0,00 h 23 W/m 6,1 km/h (2 Bft)
15.02.2015 17:00 -2,0 C 93 % 1013,1 hPa 0,0 l/m O 0,00 h 7 W/m 8,7 km/h (2 Bft)
15.02.2015 18:00 -2,1 C 94 % 1013,5 hPa 0,0 l/m O 0,00 h 0 W/m 9,5 km/h (2 Bft)
15.02.2015 19:00 -2,2 C 94 % 1014,5 hPa 0,0 l/m O-NO 0,00 h 0 W/m 10,1 km/h (2 Bft)
15.02.2015 20:00 -2,3 C 95 % 1015,3 hPa 0,0 l/m O 0,00 h 0 W/m 6,8 km/h (2 Bft)
15.02.2015 21:00 -2,3 C 95 % 1015,7 hPa 0,0 l/m O 0,00 h 0 W/m 7,1 km/h (2 Bft)
15.02.2015 22:00 -2,2 C 96 % 1015,8 hPa 0,0 l/m O 0,00 h 0 W/m 7,2 km/h (2 Bft)
15.02.2015 23:00 -2,1 C 96 % 1016,1 hPa 0,0 l/m O 0,00 h 0 W/m 4,7 km/h (1 Bft)
Min-Datum _ 13.02.15 09.02.15 14.02.15 - - - - 09.02.15
_ Min-Zeit 05:50 12:55 17:05 - - - - 00:00
Minimum _ -9,4 C 65 % 1009,9 hPa - - - - 0,0 km/h (0 Bft)
Max-Datum _ 10.02.15 09.02.15 09.02.15 09.02.15 - 10.02.15 10.02.15 09.02.15
_ Max-Zeit 14:40 04:45 21:50 00:00 - 11:20 11:25 11:40
Maximum _ 4,2 C 98 % 1032,2 hPa 0,0 l/m - 0,08 h 647 W/m 24,1 km/h
SW (4 Bft)
Durchschnitt _ -2,5 C 90 % 1022,3 hPa #0,0 l/m O-NO #21:00 h 143 W/m 4,7 km/h (1 Bft)